[[{"header":{"parameterUnit":"m.s-1","parameterCategory":1,"la1":30.2991,"la2":30.254,"lo1":-89.0895,"lo2":-89.0444,"dy":0.0017,"dx":0.0017,"nx":28,"ny":28,"refTime":"2025-04-27T03:00:00:Z","depth":0,"parameterNumber":2,"parameterNumberName":"U-component_of_WINDS"},"data":[0,0,0,0,0,0,0,0,0,0,0,0,0,0,0,0,0,0,0,0,0,0,0,0,0,0,0,0,0,0,0,0,0,0,0,0,0,0,0,0,0,0,0,0,0,0,0,0,0,0,0,0,0,0,0,0,0,0,0.5384,0.5385,0,0.5502,0.5503,0.5505,0.5536,0.5536,0.5535,0.5534,0.5656,0.566,0.5664,0,0,0,0,0,0,0,0,0,0,0,0,0,0.5186,0.519,0.5384,0.5385,0.5387,0.5502,0.5503,0.5505,0.5536,0.5536,0.5535,0.5534,0.5655,0.5659,0.5664,0,0,0,0,0,0,0,0,0,0,0,0,0,0.5285,0.5191,0.5384,0.5416,0.5421,0.5501,0.5503,0.5505,0.5537,0.5536,0.5535,0.5534,0.5653,0.5659,0.5665,0.5722,0,0,0.5683,0.5685,0,0,0,0,0,0,0,0,0.5279,0.5292,0.541,0.5414,0.5419,0.5503,0.5478,0.5578,0.5537,0.5493,0.5534,0.5533,0.5606,0.5616,0.564,0.5727,0.5733,0.5683,0.5687,0.5689,0.5691,0,0,0,0,0,0,0,0.5273,0.5287,0.5431,0.5412,0.5417,0.5425,0.5438,0.5497,0.5554,0.5496,0.5499,0.5512,0.5608,0.5635,0.5643,0.5734,0.5683,0.5688,0.5692,0.5694,0.5874,0.5875,0,0,0,0,0,0,0.526,0.5281,0.5427,0.5434,0.5345,0.543,0.5444,0.5477,0.5553,0.5564,0.5513,0.5513,0.5625,0.5637,0.5648,0.572,0.5689,0.5695,0.5698,0.5873,0.5874,0.5876,0,0,0,0,0,0,0.5256,0.5273,0.5422,0.5359,0.5378,0.5434,0.5471,0.548,0.5506,0.5566,0.5576,0.553,0.5625,0.564,0.5703,0.5724,0.5697,0.5703,0.5871,0.5873,0.5875,0.5863,0,0,0,0,0,0,0.525,0.5271,0.5293,0.5359,0.5381,0.5475,0.5473,0.5483,0.5516,0.5518,0.5584,0.5594,0.5625,0.5694,0.5709,0.5732,0.5707,0.587,0.5872,0.5875,0.5862,0.5865,0.5867,0,0,0,0,0,0.5243,0.5285,0.5294,0.5311,0.541,0.5476,0.5489,0.5524,0.5518,0.5541,0.5579,0.5592,0.5719,0.57,0.5717,0.5742,0.5869,0.5872,0.5874,0.5861,0.5864,0.5867,0,0,0,0,0,0,0.5221,0.5294,0.5305,0.537,0.5417,0.5481,0.5511,0.5526,0.5575,0.5575,0.5616,0.5631,0.5691,0.5723,0.5701,0.5801,0.5794,0.5801,0.5778,0.5782,0.5784,0.5775,0.5712,0,0,0,0,0,0.5223,0.5271,0.5333,0.5384,0.5407,0.5455,0.5485,0.5507,0.5557,0.5577,0.562,0.5669,0.572,0.5752,0.5803,0.5867,0.5882,0.5892,0.5895,0.5896,0.5901,0.5938,0.5943,0.5885,0.5885,0.5885,0,0,0.5229,0.5276,0.5303,0.5381,0.5419,0.5468,0.5471,0.5522,0.5558,0.5585,0.5648,0.5681,0.5737,0.5801,0.5832,0.583,0.5921,0.59,0.5901,0.5905,0.5941,0.5947,0.5952,0.5887,0.5887,0.5887,0,0,0.5265,0.5305,0.5352,0.5391,0.5449,0.5481,0.5492,0.5555,0.5578,0.5641,0.5662,0.5706,0.5793,0.5832,0.5864,0.5914,0.5928,0.5929,0.5942,0.5977,0.5981,0.5986,0.6004,0.601,0.5934,0.5934,0.5934,0,0.5266,0.5339,0.5374,0.5425,0.5458,0.5484,0.5532,0.5568,0.564,0.5663,0.5659,0.5769,0.5809,0.5882,0.5895,0.5919,0.5933,0.5922,0.5978,0.5982,0.5987,0.6005,0.6011,0.5934,0.5934,0.5934,0.5934,0,0.5337,0.5387,0.5418,0.5487,0.5524,0.5573,0.5616,0.5649,0.5668,0.57,0.5764,0.5813,0.5873,0.5892,0.5912,0.5969,0.5966,0.5969,0.5963,0.5992,0.6009,0.6016,0.5934,0.5934,0.5934,0.5934,0,0,0.5362,0.545,0.5461,0.5492,0.5558,0.5598,0.5648,0.5707,0.5735,0.5783,0.5827,0.5899,0.5903,0.5938,0.5962,0.5993,0.603,0.5993,0.5995,0.5999,0.6096,0.6093,0.61,0.6039,0.6041,0.6042,0.6091,0,0.5407,0.5497,0.553,0.5604,0.5652,0.5677,0.572,0.5766,0.5797,0.5841,0.5876,0.5927,0.5928,0.595,0.5981,0.6019,0.605,0.6016,0.608,0.6082,0.6066,0.611,0.6107,0.6151,0.6098,0.61,0.6101,0,0.5471,0.552,0.5598,0.5659,0.568,0.5719,0.5775,0.5818,0.587,0.589,0.5929,0.5951,0.6005,0.5994,0.6069,0.6044,0.6073,0.6095,0.6098,0.6106,0.6093,0.6119,0.6166,0.6173,0.6112,0.6111,0.611,0,0.5482,0.5568,0.5626,0.5652,0.5724,0.5751,0.5782,0.5833,0.5866,0.5915,0.5937,0.5992,0.6023,0.6065,0.6101,0.609,0.6172,0.6165,0.6191,0.619,0.6207,0.6206,0.626,0.6224,0.6224,0.6224,0.6224,0,0.5528,0.5575,0.5632,0.5668,0.5721,0.5759,0.5811,0.5844,0.5889,0.5932,0.5957,0.5997,0.6042,0.6087,0.6116,0.6173,0.6186,0.6204,0.6212,0.6203,0.62,0.6222,0.622,0.6226,0.6226,0.6225,0.6225,0,0.5549,0.5589,0.5655,0.5717,0.5734,0.5771,0.5825,0.5861,0.5893,0.5946,0.5961,0.6012,0.6066,0.6106,0.6177,0.6196,0.6258,0.6265,0.624,0.6244,0.6268,0.6265,0.6338,0.635,0.6306,0.6306,0.6307,0,0.5576,0.5613,0.568,0.5711,0.5742,0.579,0.5825,0.5863,0.5897,0.5959,0.5988,0.6044,0.6091,0.6178,0.6221,0.6275,0.6284,0.6306,0.6292,0.6282,0.6284,0.6282,0.6286,0.6308,0.6308,0.6308,0.6308,0,0.562,0.5638,0.5686,0.5742,0.5781,0.5827,0.5872,0.5896,0.5942,0.598,0.6036,0.6072,0.6145,0.62,0.6259,0.6291,0.6308,0.6312,0.6321,0.6312,0.6297,0.6306,0.6246,0.631,0.631,0.631,0.631,0.631,0.5646,0.568,0.5732,0.5785,0.5823,0.5865,0.5902,0.5939,0.5986,0.6048,0.6068,0.6126,0.6177,0.6257,0.629,0.6336,0.6336,0.6349,0.6352,0.6355,0.6354,0.6289,0.6347,0.6347,0.6347,0.6347,0.6347,0,0.5691,0.5726,0.5774,0.5837,0.5879,0.589,0.5941,0.5975,0.6026,0.6073,0.6119,0.6183,0.6237,0.6284,0.6341,0.6368,0.6377,0.6382,0.638,0.6388,0.6351,0.6338,0.6374,0.6374,0.6374,0.6374,0.6374,0.6374,0.5719,0.5778,0.5802,0.5879,0.5914,0.5971,0.6,0.6039,0.6076,0.6147,0.6192,0.6222,0.6269,0.6329,0.6379,0.6391,0.6411,0.6414,0.6428,0.6393,0.639,0.6387,0.6375,0.6418,0.6418,0.646,0.6461,0.6461]},{"header":{"parameterUnit":"m.s-1","parameterCategory":1,"la1":30.2991,"la2":30.254,"lo1":-89.0895,"lo2":-89.0444,"dy":0.0017,"dx":0.0017,"nx":28,"ny":28,"refTime":"2025-04-27T03:00:00:Z","depth":0,"parameterNumber":3,"parameterNumberName":"V-component_of_WINDS"},"data":[0,0,0,0,0,0,0,0,0,0,0,0,0,0,0,0,0,0,0,0,0,0,0,0,0,0,0,0,0,0,0,0,0,0,0,0,0,0,0,0,0,0,0,0,0,0,0,0,0,0,0,0,0,0,0,0,0,0,3.808,3.808,0,3.8051,3.8051,3.805,3.8056,3.8057,3.8057,3.8058,3.8023,3.8022,3.8021,0,0,0,0,0,0,0,0,0,0,0,0,0,3.8137,3.8136,3.808,3.808,3.8079,3.8051,3.8051,3.805,3.8056,3.8057,3.8057,3.8058,3.8024,3.8022,3.802,0,0,0,0,0,0,0,0,0,0,0,0,0,3.811,3.8136,3.808,3.8079,3.8078,3.8051,3.8051,3.805,3.8056,3.8057,3.8057,3.8058,3.8024,3.8022,3.802,3.7991,0,0,3.8014,3.8013,0,0,0,0,0,0,0,0,3.8112,3.8108,3.8079,3.8079,3.8078,3.8058,3.8058,3.803,3.8056,3.8064,3.8058,3.8059,3.8034,3.8031,3.8024,3.7989,3.7988,3.8014,3.8012,3.8011,3.8011,0,0,0,0,0,0,0,3.8114,3.811,3.8068,3.8079,3.8078,3.8079,3.8076,3.8053,3.8045,3.8064,3.8064,3.8061,3.8034,3.8026,3.8023,3.7987,3.8014,3.8012,3.801,3.801,3.7929,3.7928,0,0,0,0,0,0,3.8117,3.8111,3.8069,3.8067,3.8098,3.8077,3.8074,3.8064,3.8045,3.8043,3.806,3.8061,3.8029,3.8025,3.8022,3.7987,3.8011,3.8009,3.8008,3.793,3.7929,3.7928,0,0,0,0,0,0,3.8118,3.8113,3.807,3.8089,3.8084,3.8075,3.8064,3.8063,3.8055,3.8042,3.8041,3.8054,3.8029,3.8025,3.7999,3.7986,3.8008,3.8006,3.7931,3.7929,3.7928,3.7917,0,0,0,0,0,0,3.8119,3.8113,3.8103,3.8089,3.8083,3.8049,3.8063,3.8062,3.8052,3.8053,3.8036,3.8034,3.803,3.8002,3.7997,3.7983,3.8005,3.7932,3.793,3.7928,3.7918,3.7915,3.7913,0,0,0,0,0,3.8122,3.8099,3.8102,3.8097,3.807,3.8048,3.8045,3.8042,3.805,3.8039,3.8032,3.8034,3.7988,3.8,3.7994,3.7979,3.7933,3.793,3.7929,3.792,3.7916,3.7913,0,0,0,0,0,0,3.8109,3.8097,3.81,3.8073,3.8062,3.8049,3.8035,3.8038,3.8023,3.8024,3.802,3.8016,3.799,3.7982,3.7995,3.7951,3.7962,3.7958,3.7957,3.7953,3.795,3.7953,3.8003,0,0,0,0,0,3.8104,3.8089,3.8079,3.8056,3.805,3.8044,3.8034,3.8033,3.8021,3.8016,3.8006,3.7993,3.7975,3.7964,3.7947,3.7918,3.7914,3.7905,3.7902,3.79,3.7897,3.7882,3.7878,3.7921,3.7921,3.7921,0,0,3.8091,3.8083,3.8073,3.8053,3.8044,3.8028,3.8039,3.8021,3.8009,3.8012,3.7988,3.7981,3.7966,3.7938,3.7926,3.7931,3.7884,3.7897,3.7896,3.7894,3.7879,3.7875,3.7872,3.792,3.792,3.792,0,0,3.8061,3.8053,3.8034,3.8026,3.8013,3.8009,3.8005,3.7992,3.7988,3.7964,3.7967,3.7951,3.7921,3.7911,3.7902,3.787,3.7872,3.7864,3.7849,3.7835,3.7831,3.7828,3.7817,3.7813,3.7862,3.7861,3.7861,0,3.8047,3.8023,3.8023,3.8006,3.7997,3.8001,3.7982,3.7973,3.7955,3.7948,3.7954,3.7918,3.7908,3.7879,3.7872,3.7864,3.7858,3.7866,3.7832,3.7829,3.7826,3.7816,3.7811,3.7861,3.7861,3.7861,3.7861,0,3.8007,3.7991,3.7977,3.7962,3.7951,3.7932,3.7929,3.7918,3.7918,3.7914,3.789,3.7878,3.786,3.7853,3.7852,3.7824,3.7828,3.7833,3.7844,3.7821,3.7811,3.7807,3.786,3.786,3.786,3.786,0,0,3.7966,3.7953,3.7948,3.7942,3.7929,3.7916,3.7898,3.7882,3.7873,3.786,3.7845,3.7821,3.7826,3.7816,3.7814,3.7801,3.7777,3.7808,3.7808,3.7803,3.7746,3.7743,3.7738,3.7779,3.7778,3.7778,3.7748,0,3.7935,3.7904,3.7905,3.7876,3.7861,3.7866,3.785,3.784,3.7836,3.7822,3.7817,3.78,3.7808,3.7802,3.779,3.7783,3.7766,3.7785,3.7764,3.7763,3.7768,3.7733,3.7728,3.7701,3.7744,3.7743,3.7743,0,3.7894,3.7883,3.7853,3.7845,3.7838,3.7824,3.781,3.7797,3.7786,3.7784,3.7774,3.7775,3.7755,3.7768,3.7741,3.7754,3.7746,3.7741,3.774,3.7738,3.7751,3.773,3.7692,3.7688,3.7737,3.7737,3.7738,0,3.7868,3.7845,3.7825,3.782,3.7809,3.7799,3.7793,3.7784,3.7775,3.7762,3.7756,3.7741,3.7733,3.7721,3.7717,3.7726,3.7691,3.7703,3.7688,3.7689,3.768,3.7681,3.7641,3.7675,3.7675,3.7675,3.7675,0,3.7833,3.7815,3.7814,3.7801,3.7781,3.7782,3.7761,3.7756,3.7748,3.7734,3.7737,3.7724,3.772,3.7706,3.7704,3.7683,3.7678,3.7676,3.7675,3.7676,3.7676,3.767,3.7672,3.7674,3.7674,3.7674,3.7674,0,3.78,3.7799,3.7777,3.777,3.7767,3.7753,3.7746,3.7734,3.7731,3.7713,3.7709,3.7704,3.7687,3.7683,3.7663,3.7662,3.7637,3.7638,3.7641,3.7641,3.7627,3.7629,3.7582,3.7576,3.7614,3.7613,3.7613,0,3.7778,3.7764,3.7756,3.7748,3.7743,3.773,3.7721,3.7721,3.7712,3.77,3.7689,3.7674,3.7662,3.7636,3.7629,3.7614,3.7615,3.76,3.7613,3.7614,3.7615,3.7616,3.7615,3.7597,3.7597,3.7596,3.7596,0,3.7738,3.7739,3.7728,3.7717,3.7707,3.7698,3.7689,3.7682,3.768,3.767,3.7655,3.7645,3.7627,3.7611,3.7597,3.759,3.7593,3.7592,3.7588,3.7588,3.7591,3.759,3.7635,3.7593,3.7593,3.7594,3.7594,3.7594,3.771,3.7699,3.7693,3.768,3.7674,3.7666,3.7655,3.7651,3.7639,3.7625,3.7625,3.7609,3.7599,3.7581,3.7573,3.756,3.7565,3.7558,3.7557,3.7556,3.7555,3.7594,3.7557,3.7557,3.7557,3.7557,3.7557,0,3.7672,3.7668,3.7657,3.7646,3.7636,3.7642,3.7632,3.7623,3.761,3.7601,3.759,3.7573,3.7559,3.7552,3.7538,3.7529,3.753,3.7525,3.7525,3.7524,3.7551,3.7556,3.7525,3.7525,3.7525,3.7525,3.7525,3.7525,3.7651,3.7633,3.7633,3.7612,3.7608,3.7593,3.7588,3.758,3.7574,3.7556,3.7545,3.7541,3.7534,3.7519,3.7507,3.7505,3.75,3.7495,3.7494,3.7519,3.7522,3.7525,3.753,3.7493,3.7493,3.7468,3.7468,3.7467]}]]